Regional Weather Roundup
Issued by NWS

Home | Current Version | Previous Version | Graphics & Text | Print | Product List | Glossary On
Versions: 1 2 3 4 5 6 7 8 9 10 11 12 13 14 15 16 17 18 19 20 21 22 23 24 25 26 27 28 29 30 31 32 33 34 35 36 37 38 39 40 41 42 43 44 45 46 47 48 49 50
000
ASUS43 KOAX 292210
RWRNE

WEATHER ROUNDUP FOR NEBRASKA
NATIONAL WEATHER SERVICE OMAHA NE
500 PM CDT FRI JUL 29 2016

NOTES: SATELLITE DATA IS BEING USED TO AUGMENT CLOUD COVER ABOVE
       12000 FEET.
       "FAIR" INDICATES FEW OR NO CLOUDS BELOW 12,000 FEET WITH NO
       SIGNIFICANT WEATHER AND/OR OBSTRUCTIONS TO VISIBILITY.

  * THESE STATIONS DO NOT REPORT WEATHER SUCH AS RAIN...SNOW OR FOG.

NEZ001>004-019>022-054>056-292300-
NEBRASKA PANHANDLE

CITY           SKY/WX    TMP DP  RH WIND       PRES   REMARKS
SCOTTSBLUFF    PTSUNNY   81  61  50 E14       30.04S
ALLIANCE       CLOUDY    74  61  63 SE14      30.06F
CHADRON        LGT RAIN  73  61  65 S22       30.02S
KIMBALL        CLOUDY    75  57  53 S8        30.14R THUNDER
SIDNEY         CLOUDY    79  56  45 SE18      30.11F
$$

NEZ057>060-069>072-079>082-292300-
SOUTHWEST NEBRASKA

CITY           SKY/WX    TMP DP  RH WIND       PRES   REMARKS
NORTH PLATTE   SUNNY     83  61  47 S3        30.05F
IMPERIAL       PTSUNNY   81  58  45 SE8       30.07F
LEXINGTON      MOSUNNY   79  65  62 E6        30.05F
MCCOOK         SUNNY     85  57  38 S6        30.04F
OGALLALA       MOSUNNY   83  56  38 SE5       30.06F
$$

NEZ005>010-023>029-035>040-094-292300-
NORTH CENTRAL NEBRASKA

CITY           SKY/WX    TMP DP  RH WIND       PRES   REMARKS
VALENTINE      MOSUNNY   80  55  42 SW8       30.05F
AINSWORTH      SUNNY     75  62  65 SE8       30.07F
BROKEN BOW     MOSUNNY   77  64  64 NE6       30.06F
O`NEILL        SUNNY     78  55  45 E5        30.06F
ORD            PTSUNNY   77  60  55 CALM      30.04F
THEDFORD       MOSUNNY   80  59  48 S3        30.08R
$$

NEZ041-046>049-061>064-073>077-083>087-292300-
SOUTH CENTRAL NEBRASKA

CITY           SKY/WX    TMP DP  RH WIND       PRES   REMARKS
GRAND ISLAND   PTSUNNY   79  60  52 E6        30.05F
AURORA         PTSUNNY   77  65  67 NE10      30.05S
HASTINGS       SUNNY     80  64  58 NE6       30.05F
HEBRON         SUNNY     82  60  46 N5        30.02F
HOLDREGE       PTSUNNY   78  64  62 E6        30.05F
KEARNEY *      SUNNY     79  63  57 N5        30.06F
YORK           SUNNY     77  63  61 NE6       30.04F
$$

NEZ011>018-030>034-042>045-292300-
NORTHEAST NEBRASKA

CITY           SKY/WX    TMP DP  RH WIND       PRES   REMARKS
NORFOLK        PTSUNNY   79  58  48 E7        30.03F
ALBION         PTSUNNY   79  58  49 NE9       30.05S
BLAIR          MOSUNNY   81  61  51 N10       30.02S
FREMONT        MOSUNNY   80  58  47 NW5       30.03S
TEKAMAH        MOSUNNY   82  59  45 N8        30.00F
WAYNE          MOSUNNY   79  60  51 NE3       30.04S
$$

NEZ050>053-065>068-078-088>093-292300-
SOUTHEAST NEBRASKA

CITY           SKY/WX    TMP DP  RH WIND       PRES   REMARKS
LINCOLN        MOSUNNY   83  61  47 N14       30.02F
OMAHA EPPLEY   MOSUNNY   83  61  47 N10       30.00F
BEATRICE       PTSUNNY   80  63  56 N5        30.01F
FALLS CITY     CLOUDY    80  63  55 NE7       30.00S
NEBRASKA CITY  MOSUNNY   79  58  49 N6        30.01F
PLATTSMOUTH    MOSUNNY   79  60  51 N5        30.01S
$$

NEZ044-045-051>053-067-292300-
OMAHA AREA

CITY           SKY/WX    TMP DP  RH WIND       PRES   REMARKS
OMAHA EPPLEY   MOSUNNY   83  61  47 N10       30.00F
BLAIR          MOSUNNY   81  61  51 N10       30.02S
FREMONT        MOSUNNY   80  58  47 NW5       30.03S
MILLARD        MOSUNNY   80  60  50 NW9       30.00F
OFFUTT AFB     SUNNY     80  60  51 N8        29.99F
PLATTSMOUTH    MOSUNNY   79  60  51 N5        30.01S
WAHOO          FAIR      80  60  50 N7        30.02F
$$




USA.gov is the U.S. government's official web portal to all federal, state and local government web resources and services.